User: anonymous   Login
Location: Peebles
(55.6412°N, 3.1714°W)
Time: 02:24:05
(UTC+00:00)
Language:

Cosmos 1354 Rocket - Orbit

View from above orbital plane
View from above orbital plane
View from above satellite
View from above satellite

Ground track
Ground track

The orbit data is extracted from the following two-line orbital elements,

1 13149U 82037B   21333.43804782  .00000075  00000-0  35351-4 0  9999
2 13149  74.0394 152.2437 0013854 314.5081  45.4939 14.35422996 70617
Epoch (UTC): 29 November 2021 10:30:47
Eccentricity: 0.0013854
inclination: 74.0394°
perigee height: 764 km
apogee height: 783 km
right ascension of ascending node: 152.2437°
argument of perigee: 314.5081°
revolutions per day: 14.35422996
mean anomaly at epoch: 45.4939°
orbit number at epoch: 7061

The dashed part of the orbit path shows where the satellite is in the earth's shadow,  

DLR